El Dorado, AR

6:01 AM CDT on April 24, 2018 (GMT -0500)
South Arkansas Regional At Goodwin

Weather History for KELD - February, 2014

Change the Weather History Date:

Wednesday, February 26, 2014

  Actual Average Record
Temperature  
Mean Temperature 34 °F 51 °F  
Max Temperature 43 °F 62 °F 89 °F (1917)
Min Temperature 25 °F 39 °F 19 °F (1960)
Degree Days  
Heating Degree Days 31 15  
Month to date heating degree days 540 458  
Since 1 July heating degree days 2556 2201  
Cooling Degree Days 0 0  
Month to date cooling degree days 0 0  
Year to date cooling degree days 0 2  
Moisture  
Dew Point 26 °F    
Average Humidity 66    
Maximum Humidity 92    
Minimum Humidity 39    
Precipitation  
Precipitation 0.10 in 0.17 in 2.67 in (2000)
Month to date precipitation 3.41 4.45  
Year to date precipitation 4.57 8.75  
Snow  
Snow 0.00 in - - ()
Month to date snowfall 1.1  
Since 1 July snowfall 1.1  
Snow Depth 0.00 in    
Sea Level Pressure  
Sea Level Pressure 30.17 in    
Wind  
Wind Speed 6 mph (NNE)    
Max Wind Speed 17 mph    
Max Gust Speed 24 mph    
Visibility 10 miles    
Events Rain    
T = Trace of Precipitation, MM = Missing Value Source: NWS Daily Summary

Daily Weather History Graph

Daily Weather History Graph

Search for Another Location

Airport or City:

Astronomy

Feb. 26, 2014 Rise Set
Actual Time 6:42 AM CST 6:05 PM CST
Civil Twilight 6:17 AM CST 6:30 PM CST
Nautical Twilight 5:49 AM CST 6:59 PM CST
Astronomical Twilight 5:20 AM CST 7:28 PM CST
Moon 4:22 AM CST (2/26) 3:26 PM CST (2/26)
Length of Visible Light 12h 12m
Length of Day
11h 22m
Waning Crescent, 10% of the Moon is Illuminated
Feb 26
Waning Crescent
Mar 1
New
Mar 8
First Quarter
Mar 16
Full
Mar 23
Last Quarter

Hourly Weather History & Observations

Time (CST) Temp. Windchill Dew Point Humidity Pressure Visibility Wind Dir Wind Speed Gust Speed Precip Events Conditions
12:53 AM 37.9 °F 31.5 °F 36.0 °F 93% 30.11 in 8.0 mi NNE 9.2 mph - 0.11 in Rain Rain
1:53 AM 39.0 °F 33.4 °F 36.0 °F 89% 30.13 in 10.0 mi NNE 8.1 mph - 0.01 in   Overcast
2:05 AM 39.0 °F 34.0 °F 37.0 °F 93% 30.14 in 10.0 mi NNE 6.9 mph - 0.00 in   Overcast
2:42 AM 37.9 °F 29.2 °F 34.0 °F 86% 30.17 in 10.0 mi North 15.0 mph 24.2 mph 0.00 in Rain Light Rain
2:53 AM 37.9 °F 30.0 °F 34.0 °F 86% 30.14 in 10.0 mi NNE 12.7 mph - 0.00 in Rain Light Rain
3:53 AM 37.0 °F 28.9 °F 33.1 °F 86% 30.15 in 10.0 mi NNE 12.7 mph 20.7 mph 0.00 in   Overcast
4:53 AM 36.0 °F 29.0 °F 30.0 °F 79% 30.17 in 10.0 mi NNE 9.2 mph 21.9 mph N/A   Overcast
5:53 AM 35.1 °F 28.6 °F 28.9 °F 78% 30.20 in 10.0 mi NNE 8.1 mph - N/A   Overcast
6:53 AM 35.1 °F 27.9 °F 26.1 °F 70% 30.22 in 10.0 mi NNE 9.2 mph - N/A   Overcast
7:53 AM 35.1 °F 27.4 °F 23.0 °F 61% 30.23 in 10.0 mi North 10.4 mph 19.6 mph N/A   Overcast
8:53 AM 35.1 °F 27.4 °F 19.9 °F 54% 30.24 in 10.0 mi North 10.4 mph - N/A   Overcast
9:53 AM 37.0 °F 31.6 °F 21.0 °F 52% 30.24 in 10.0 mi Variable 6.9 mph 17.3 mph N/A   Clear
10:53 AM 37.0 °F 30.4 °F 19.9 °F 50% 30.24 in 10.0 mi NNE 9.2 mph 18.4 mph N/A   Clear
11:53 AM 37.9 °F 32.1 °F 19.9 °F 48% 30.22 in 10.0 mi North 8.1 mph - N/A   Clear
12:53 PM 39.9 °F 35.8 °F 21.0 °F 47% 30.19 in 10.0 mi NNE 5.8 mph 16.1 mph N/A   Clear
1:53 PM 41.0 °F 36.4 °F 19.9 °F 43% 30.15 in 10.0 mi NNE 6.9 mph - N/A   Clear
2:53 PM 41.0 °F 37.1 °F 19.9 °F 43% 30.14 in 10.0 mi NNE 5.8 mph - N/A   Clear
3:53 PM 42.1 °F 36.6 °F 19.9 °F 41% 30.14 in 10.0 mi NNW 9.2 mph - N/A   Clear
4:53 PM 41.0 °F 38.0 °F 19.9 °F 43% 30.13 in 10.0 mi Variable 4.6 mph - N/A   Clear
5:53 PM 39.0 °F 36.8 °F 23.0 °F 53% 30.12 in 10.0 mi NNW 3.5 mph - N/A   Clear
6:53 PM 33.1 °F - 25.0 °F 72% 30.12 in 10.0 mi Calm Calm - N/A   Clear
7:53 PM 30.9 °F - 24.1 °F 76% 30.13 in 10.0 mi Calm Calm - N/A   Clear
8:53 PM 28.0 °F - 24.1 °F 85% 30.14 in 10.0 mi Calm Calm - N/A   Clear
9:53 PM 27.0 °F - 24.1 °F 89% 30.15 in 10.0 mi Calm Calm - N/A   Clear
10:53 PM 27.0 °F - 23.0 °F 85% 30.15 in 10.0 mi Calm Calm - N/A   Clear
11:53 PM 26.1 °F - 21.9 °F 84% 30.14 in 10.0 mi Calm Calm - N/A   Clear